Location: ??
(35.5052°N, 139.7262°E)
Time: 03:47:43
(UTC+00:00)

CZ-2C R/B - Pass Details

Date: 20 June 2021
Orbit: 667 x 785 km, 98.2° (Epoch: 26 July)

Event Time Altitude Azimuth Distance (km) Brightness Sun altitude
Rises 18:43:54 0° 7° (N) 3,182 6.4 -8.0°
Reaches altitude 10° 18:46:16 10° 3° (N) 2,236 5.5 -7.6°
Maximum altitude 18:51:02 54° 287° (WNW) 867 2.6 -6.8°
Drops below altitude 10° 18:55:37 10° 210° (SSW) 2,150 4.3 -6.1°
Enters shadow 18:57:05 - 207° (SSW) 2,737 4.8 -5.8°
